TSUBAME

Last updated on Mon Mar 05 2018 00:19:52 GMT+0000 (Coordinated Universal Time)

1 40302U 14070E 18063.82754402 .00000423 00000-0 24485-4 0 9997 2 40302 97.3461 133.3887 0037686 296.5235 199.6530 15.16937263183857

Satellite not in orbit

TSUBAME